[[{"header":{"parameterUnit":"m.s-1","parameterCategory":1,"la1":30.2991,"la2":30.254,"lo1":-89.0895,"lo2":-89.0444,"dy":0.0017,"dx":0.0017,"nx":28,"ny":28,"refTime":"2023-10-02T03:00:00:Z","depth":0,"parameterNumber":2,"parameterNumberName":"U-component_of_WINDS"},"data":[0,0,0,0,0,0,0,0,0,0,0,0,0,0,0,0,0,0,0,0,0,0,0,0,0,0,0,0,0,0,0,0,0,0,0,0,0,0,0,0,0,0,0,0,0,0,0,0,0,0,0,0,0,0,0,0,0,0,-5.2527,-5.2527,0,-5.2518,-5.2518,-5.2518,-5.2393,-5.239,-5.2387,-5.2384,-5.2377,-5.238,-5.2382,0,0,0,0,0,0,0,0,0,0,0,0,0,-5.2439,-5.2441,-5.2527,-5.2527,-5.2526,-5.2518,-5.2518,-5.2518,-5.2394,-5.239,-5.2386,-5.2383,-5.2376,-5.2379,-5.2383,0,0,0,0,0,0,0,0,0,0,0,0,0,-5.2459,-5.2442,-5.2527,-5.2464,-5.2458,-5.2518,-5.2518,-5.2518,-5.2395,-5.239,-5.2385,-5.2381,-5.2375,-5.2379,-5.2383,-5.2504,0,0,-5.2396,-5.2398,0,0,0,0,0,0,0,0,-5.2458,-5.2462,-5.2473,-5.2468,-5.2462,-5.2452,-5.2484,-5.2513,-5.2396,-5.2419,-5.2384,-5.2378,-5.2406,-5.2407,-5.2416,-5.2503,-5.2503,-5.2396,-5.2399,-5.24,-5.2402,0,0,0,0,0,0,0,-5.2456,-5.2462,-5.2523,-5.2473,-5.2466,-5.2437,-5.2434,-5.2489,-5.2439,-5.2416,-5.2407,-5.2408,-5.2402,-5.2412,-5.2415,-5.2503,-5.2396,-5.24,-5.2402,-5.2404,-5.2691,-5.2695,0,0,0,0,0,0,-5.2463,-5.2461,-5.2523,-5.2523,-5.2448,-5.2442,-5.2439,-5.246,-5.2438,-5.243,-5.2412,-5.2402,-5.2408,-5.241,-5.2414,-5.2555,-5.24,-5.2404,-5.2407,-5.2685,-5.2692,-5.2697,0,0,0,0,0,0,-5.2462,-5.247,-5.2524,-5.249,-5.2494,-5.2449,-5.2473,-5.2462,-5.2472,-5.2435,-5.2425,-5.2432,-5.2404,-5.2408,-5.2483,-5.2553,-5.2406,-5.241,-5.2679,-5.2687,-5.2694,-5.2837,0,0,0,0,0,0,-5.246,-5.247,-5.2515,-5.2492,-5.2496,-5.2592,-5.2477,-5.2465,-5.248,-5.2467,-5.2451,-5.2444,-5.2401,-5.2477,-5.2487,-5.2556,-5.2413,-5.2673,-5.2683,-5.2692,-5.2826,-5.2849,-5.2869,0,0,0,0,0,-5.2457,-5.2556,-5.2518,-5.2526,-5.2551,-5.2596,-5.2599,-5.2547,-5.2486,-5.2531,-5.2507,-5.2444,-5.2544,-5.2486,-5.2496,-5.2567,-5.2668,-5.268,-5.2691,-5.2817,-5.2845,-5.2868,0,0,0,0,0,0,-5.2589,-5.2551,-5.2509,-5.2602,-5.2604,-5.2575,-5.263,-5.2578,-5.2597,-5.2584,-5.2519,-5.2517,-5.2602,-5.2591,-5.2527,-5.2684,-5.2595,-5.2609,-5.2687,-5.2713,-5.2734,-5.2735,-5.2417,0,0,0,0,0,-5.2628,-5.2667,-5.2633,-5.2719,-5.2721,-5.2676,-5.2694,-5.2654,-5.2652,-5.2652,-5.2633,-5.2636,-5.2667,-5.2689,-5.2716,-5.2824,-5.282,-5.2878,-5.29,-5.2917,-5.293,-5.2988,-5.3015,-5.2735,-5.2735,-5.2735,0,0,-5.2711,-5.2696,-5.2724,-5.2745,-5.2741,-5.2784,-5.2677,-5.2727,-5.2758,-5.266,-5.2729,-5.2716,-5.2714,-5.2806,-5.2845,-5.28,-5.3007,-5.2932,-5.2946,-5.295,-5.3003,-5.303,-5.3053,-5.2743,-5.2742,-5.274,0,0,-5.2884,-5.2876,-5.2947,-5.2945,-5.2941,-5.291,-5.2928,-5.2907,-5.2895,-5.2963,-5.2891,-5.2928,-5.2983,-5.2985,-5.2994,-5.3169,-5.3113,-5.318,-5.3291,-5.3349,-5.3371,-5.339,-5.3454,-5.3478,-5.3193,-5.3194,-5.3194,0,-5.2988,-5.3048,-5.299,-5.3045,-5.3057,-5.297,-5.3042,-5.3044,-5.3049,-5.306,-5.3009,-5.3078,-5.307,-5.3162,-5.3205,-5.3214,-5.3234,-5.3182,-5.3372,-5.3391,-5.3408,-5.3468,-5.3493,-5.3202,-5.3201,-5.32,-5.3199,0,-5.3177,-5.3221,-5.3279,-5.3286,-5.3304,-5.3368,-5.3321,-5.3346,-5.3305,-5.3281,-5.3353,-5.334,-5.3364,-5.3383,-5.3343,-5.347,-5.3443,-5.3383,-5.3293,-5.3444,-5.35,-5.3522,-5.3214,-5.3211,-5.3208,-5.3206,0,0,-5.3432,-5.3407,-5.3429,-5.3432,-5.3421,-5.3454,-5.3515,-5.3538,-5.3562,-5.3569,-5.3619,-5.3669,-5.3614,-5.3624,-5.3583,-5.3634,-5.3776,-5.3568,-5.3567,-5.3608,-5.3918,-5.3964,-5.3991,-5.3738,-5.3742,-5.3746,-5.3918,0,-5.36,-5.3701,-5.3651,-5.3758,-5.3799,-5.3717,-5.377,-5.377,-5.3749,-5.3782,-5.3758,-5.3795,-5.3719,-5.3725,-5.3771,-5.3749,-5.3837,-5.3736,-5.3786,-5.3788,-5.379,-5.402,-5.4068,-5.4232,-5.394,-5.3943,-5.3946,0,-5.3809,-5.3825,-5.3937,-5.392,-5.3935,-5.3983,-5.4001,-5.4033,-5.4032,-5.4013,-5.4025,-5.3973,-5.4033,-5.3943,-5.4025,-5.3957,-5.3975,-5.3968,-5.3973,-5.3976,-5.3877,-5.4032,-5.4283,-5.4308,-5.398,-5.3977,-5.3974,0,-5.3986,-5.4035,-5.4108,-5.4113,-5.4095,-5.4131,-5.4126,-5.412,-5.4137,-5.4153,-5.4165,-5.4188,-5.4201,-5.4221,-5.4178,-5.4116,-5.4267,-5.4173,-5.4254,-5.4256,-5.429,-5.4289,-5.4549,-5.43,-5.43,-5.4299,-5.4299,0,-5.4179,-5.4251,-5.4188,-5.4233,-5.4312,-5.4255,-5.4335,-5.432,-5.4316,-5.4358,-5.4289,-5.4331,-5.427,-5.4306,-5.4273,-5.4347,-5.4353,-5.4341,-5.4332,-5.4348,-5.435,-5.4359,-5.4348,-5.4306,-5.4304,-5.4303,-5.4302,0,-5.439,-5.435,-5.4425,-5.4402,-5.4398,-5.4458,-5.4439,-5.4481,-5.4455,-5.451,-5.4519,-5.448,-5.4519,-5.4477,-5.4513,-5.4491,-5.4592,-5.4565,-5.4592,-5.4585,-5.467,-5.4663,-5.4946,-5.4981,-5.4709,-5.4711,-5.4713,0,-5.4516,-5.457,-5.4553,-5.4576,-5.4575,-5.4613,-5.4631,-5.4577,-5.4598,-5.4602,-5.4644,-5.4677,-5.4701,-5.4767,-5.4743,-5.477,-5.4745,-5.4842,-5.4748,-5.4764,-5.4748,-5.4746,-5.4752,-5.4862,-5.4865,-5.4867,-5.487,0,-5.4746,-5.4724,-5.4752,-5.4774,-5.4797,-5.4812,-5.4821,-5.4845,-5.4789,-5.4817,-5.4856,-5.4874,-5.4911,-5.4946,-5.4967,-5.4962,-5.4908,-5.4899,-5.492,-5.4938,-5.4952,-5.4947,-5.4646,-5.4893,-5.4891,-5.4889,-5.4888,-5.4887,-5.4919,-5.4964,-5.4959,-5.4993,-5.4995,-5.5006,-5.5045,-5.5024,-5.5055,-5.5081,-5.5048,-5.5096,-5.5096,-5.5118,-5.512,-5.5158,-5.5117,-5.5146,-5.5154,-5.5162,-5.5176,-5.4945,-5.5161,-5.5161,-5.516,-5.5159,-5.5159,0,-5.5146,-5.5139,-5.5171,-5.5187,-5.5215,-5.516,-5.5169,-5.5196,-5.5239,-5.5242,-5.5267,-5.5313,-5.5347,-5.5325,-5.5354,-5.5389,-5.5365,-5.5399,-5.5396,-5.5396,-5.521,-5.519,-5.5418,-5.5418,-5.5418,-5.5418,-5.5418,-5.5417,-5.5267,-5.534,-5.5319,-5.5392,-5.5385,-5.5432,-5.5442,-5.5452,-5.5455,-5.5509,-5.5536,-5.5522,-5.5516,-5.5544,-5.5573,-5.5566,-5.5581,-5.5624,-5.5608,-5.5435,-5.5409,-5.5385,-5.5366,-5.5627,-5.5627,-5.5791,-5.5793,-5.5794]},{"header":{"parameterUnit":"m.s-1","parameterCategory":1,"la1":30.2991,"la2":30.254,"lo1":-89.0895,"lo2":-89.0444,"dy":0.0017,"dx":0.0017,"nx":28,"ny":28,"refTime":"2023-10-02T03:00:00:Z","depth":0,"parameterNumber":3,"parameterNumberName":"V-component_of_WINDS"},"data":[0,0,0,0,0,0,0,0,0,0,0,0,0,0,0,0,0,0,0,0,0,0,0,0,0,0,0,0,0,0,0,0,0,0,0,0,0,0,0,0,0,0,0,0,0,0,0,0,0,0,0,0,0,0,0,0,0,0,-0.2856,-0.2856,0,-0.2851,-0.2851,-0.285,-0.2798,-0.2796,-0.2795,-0.2794,-0.2791,-0.2792,-0.2793,0,0,0,0,0,0,0,0,0,0,0,0,0,-0.2822,-0.2823,-0.2856,-0.2856,-0.2856,-0.2851,-0.285,-0.285,-0.2798,-0.2796,-0.2795,-0.2793,-0.2791,-0.2792,-0.2793,0,0,0,0,0,0,0,0,0,0,0,0,0,-0.2829,-0.2823,-0.2856,-0.2829,-0.2826,-0.2851,-0.285,-0.285,-0.2798,-0.2796,-0.2794,-0.2792,-0.279,-0.2792,-0.2793,-0.2844,0,0,-0.2799,-0.28,0,0,0,0,0,0,0,0,-0.2829,-0.283,-0.2833,-0.2831,-0.2828,-0.2823,-0.2837,-0.2848,-0.2799,-0.2809,-0.2794,-0.2791,-0.2803,-0.2804,-0.2807,-0.2844,-0.2844,-0.2799,-0.28,-0.2801,-0.2801,0,0,0,0,0,0,0,-0.2828,-0.283,-0.2854,-0.2833,-0.283,-0.2817,-0.2816,-0.2839,-0.2817,-0.2808,-0.2804,-0.2804,-0.2802,-0.2806,-0.2807,-0.2844,-0.2799,-0.28,-0.2802,-0.2802,-0.2922,-0.2924,0,0,0,0,0,0,-0.2831,-0.283,-0.2854,-0.2854,-0.2823,-0.282,-0.2818,-0.2826,-0.2817,-0.2814,-0.2806,-0.2802,-0.2804,-0.2805,-0.2807,-0.2866,-0.2801,-0.2802,-0.2803,-0.292,-0.2923,-0.2925,0,0,0,0,0,0,-0.2831,-0.2834,-0.2854,-0.2841,-0.2842,-0.2822,-0.2832,-0.2827,-0.2831,-0.2815,-0.2811,-0.2814,-0.2802,-0.2804,-0.2835,-0.2866,-0.2803,-0.2805,-0.2918,-0.2921,-0.2924,-0.2986,0,0,0,0,0,0,-0.283,-0.2834,-0.2853,-0.2842,-0.2843,-0.2883,-0.2834,-0.2829,-0.2834,-0.2829,-0.2822,-0.2819,-0.2801,-0.2833,-0.2837,-0.2867,-0.2806,-0.2915,-0.2919,-0.2923,-0.2981,-0.2991,-0.2999,0,0,0,0,0,-0.2829,-0.2871,-0.2854,-0.2857,-0.2866,-0.2885,-0.2886,-0.2863,-0.2837,-0.2856,-0.2845,-0.2819,-0.2861,-0.2836,-0.2841,-0.2872,-0.2913,-0.2918,-0.2923,-0.2977,-0.2989,-0.2999,0,0,0,0,0,0,-0.2887,-0.2869,-0.285,-0.289,-0.2889,-0.2876,-0.2899,-0.2876,-0.2884,-0.2879,-0.2851,-0.285,-0.2885,-0.2881,-0.2854,-0.292,-0.2882,-0.2888,-0.2922,-0.2934,-0.2942,-0.2944,-0.2808,0,0,0,0,0,-0.2905,-0.292,-0.2903,-0.294,-0.294,-0.292,-0.2927,-0.2909,-0.2908,-0.2908,-0.29,-0.29,-0.2913,-0.2922,-0.2934,-0.2979,-0.2978,-0.3002,-0.3011,-0.3019,-0.3025,-0.305,-0.3062,-0.2941,-0.2941,-0.2941,0,0,-0.2941,-0.2933,-0.2945,-0.2951,-0.2949,-0.2967,-0.292,-0.2941,-0.2954,-0.2911,-0.2941,-0.2934,-0.2933,-0.2972,-0.2988,-0.2969,-0.3058,-0.3025,-0.3031,-0.3034,-0.3057,-0.3068,-0.3078,-0.2944,-0.2944,-0.2943,0,0,-0.3017,-0.3011,-0.3042,-0.304,-0.3036,-0.3022,-0.3029,-0.3019,-0.3013,-0.3041,-0.301,-0.3025,-0.3048,-0.3048,-0.3052,-0.3126,-0.3103,-0.313,-0.3179,-0.3203,-0.3213,-0.3221,-0.325,-0.326,-0.3136,-0.3136,-0.3136,0,-0.3064,-0.3088,-0.3061,-0.3084,-0.3088,-0.3048,-0.3079,-0.3079,-0.3079,-0.3084,-0.3061,-0.3089,-0.3085,-0.3124,-0.3142,-0.3145,-0.3154,-0.3133,-0.3214,-0.3222,-0.3229,-0.3256,-0.3267,-0.314,-0.3139,-0.3139,-0.3138,0,-0.3146,-0.3164,-0.3189,-0.319,-0.3196,-0.3223,-0.32,-0.321,-0.3191,-0.318,-0.321,-0.3203,-0.3212,-0.3219,-0.3202,-0.3256,-0.3245,-0.3218,-0.318,-0.3245,-0.327,-0.328,-0.3145,-0.3143,-0.3142,-0.3141,0,0,-0.3262,-0.3246,-0.3256,-0.3256,-0.3248,-0.3261,-0.3286,-0.3294,-0.3305,-0.3305,-0.3327,-0.3346,-0.3321,-0.3325,-0.3307,-0.3328,-0.339,-0.3299,-0.3298,-0.3318,-0.3451,-0.3473,-0.3486,-0.3372,-0.3374,-0.3376,-0.3452,0,-0.3337,-0.3379,-0.3354,-0.34,-0.3416,-0.3378,-0.3399,-0.3397,-0.3387,-0.3399,-0.3387,-0.3403,-0.3368,-0.337,-0.3389,-0.3378,-0.3416,-0.3372,-0.3394,-0.3395,-0.3399,-0.3498,-0.3522,-0.3595,-0.3462,-0.3463,-0.3464,0,-0.3431,-0.3436,-0.3483,-0.3472,-0.3478,-0.3498,-0.3504,-0.3516,-0.3512,-0.3503,-0.3506,-0.3482,-0.3507,-0.3466,-0.35,-0.3471,-0.3478,-0.3473,-0.3476,-0.348,-0.3436,-0.3508,-0.3617,-0.3629,-0.3479,-0.3478,-0.3477,0,-0.3514,-0.3531,-0.3562,-0.3563,-0.355,-0.3565,-0.3561,-0.3555,-0.3562,-0.3566,-0.3571,-0.3578,-0.3583,-0.359,-0.3569,-0.3541,-0.3606,-0.3564,-0.3601,-0.3601,-0.3619,-0.3619,-0.3734,-0.3619,-0.3618,-0.3618,-0.3618,0,-0.3602,-0.3634,-0.3599,-0.3619,-0.3652,-0.3623,-0.3657,-0.3648,-0.3644,-0.3661,-0.3627,-0.3645,-0.3614,-0.3628,-0.3611,-0.3643,-0.3645,-0.3639,-0.3635,-0.3644,-0.3645,-0.3651,-0.3646,-0.3621,-0.362,-0.362,-0.3619,0,-0.3702,-0.368,-0.3712,-0.3696,-0.3693,-0.3719,-0.3706,-0.3723,-0.3709,-0.3732,-0.3735,-0.3713,-0.3729,-0.3707,-0.372,-0.3708,-0.3753,-0.3739,-0.3754,-0.3751,-0.3791,-0.3788,-0.3916,-0.3932,-0.3804,-0.3805,-0.3806,0,-0.3762,-0.3785,-0.3771,-0.378,-0.3777,-0.3792,-0.3798,-0.3769,-0.3777,-0.3775,-0.3793,-0.3805,-0.3813,-0.3839,-0.3825,-0.3834,-0.3823,-0.3867,-0.3824,-0.3833,-0.3827,-0.3827,-0.383,-0.3877,-0.3878,-0.388,-0.3881,0,-0.3871,-0.3858,-0.3868,-0.3874,-0.3882,-0.3886,-0.3887,-0.3896,-0.3866,-0.3876,-0.3891,-0.3897,-0.3909,-0.3922,-0.3928,-0.3924,-0.3899,-0.3893,-0.3903,-0.3914,-0.3923,-0.3921,-0.3781,-0.3892,-0.389,-0.389,-0.3889,-0.3889,-0.3954,-0.3973,-0.3966,-0.3978,-0.3975,-0.3977,-0.3993,-0.398,-0.3991,-0.3999,-0.3981,-0.4,-0.3996,-0.4001,-0.3999,-0.4014,-0.3995,-0.4009,-0.4013,-0.4017,-0.4024,-0.3918,-0.4015,-0.4015,-0.4014,-0.4014,-0.4014,0,-0.4063,-0.4056,-0.4067,-0.407,-0.4079,-0.4051,-0.4051,-0.4061,-0.4078,-0.4076,-0.4084,-0.4101,-0.4113,-0.4099,-0.4108,-0.4123,-0.4112,-0.4127,-0.4127,-0.4127,-0.4039,-0.4032,-0.4136,-0.4136,-0.4136,-0.4136,-0.4136,-0.4136,-0.4121,-0.4152,-0.4139,-0.4168,-0.4161,-0.4179,-0.4181,-0.4183,-0.4181,-0.4201,-0.421,-0.42,-0.4194,-0.4202,-0.4212,-0.4208,-0.4214,-0.4234,-0.4226,-0.4145,-0.4133,-0.4122,-0.4114,-0.4235,-0.4235,-0.4313,-0.4314,-0.4314]}]]